www.pogodaiklimat.ru

Погода и климат >> Архив погоды >> Россия >> Красноярский край >> Бор


ПОГОДА в Боре

АРХИВ ПОГОДЫ в Боре

Время (UTC), дата Ветер
(напр.,м/с)
 
Видим.   Явления Облачность Т
(С)
Тd
(С)
f
(%)
Тe
(С)
Тes
(С)
Комфортность P
(гПа)
Po
(гПа)
Тmin
(С)
Tmax
(С)
R
(мм)
R24
(мм)
S
(см)
12 14.10 штиль 0 н/о {ливн. осадки} 1/1 600 м
[Cb cap]
+1.2 +0.7 96 -0 -0 1019.5 1012.2 +10.5 0.9
15 14.10 штиль 0 н/о ясно -0.7 -1.6 94 -2 -2 1022.1 1014.8
18 14.10 штиль 0 н/о 9/0
[Ci fib]
-0.8 -2.1 91 -2 -2 1023.9 1016.5
21 14.10 штиль 0 н/о 8/0
[Ci fib]
-2.2 -3.4 91 -3 -3 1024.4 1017.0
00 15.10 штиль 0 н/о 10/0
[As op]
-1.9 -2.4 96 -3 -3 1024.8 1017.4 -2.5
03 15.10 штиль 0 17 км слабый ливневой снег 10/8 600 м
[Cb cap As op]
-0.6 -0.7 99 -2 -2 1024.3 1016.9
06 15.10 штиль 0 20 км {ливн. осадки} 10/10 600 м
[Cb cap]
+0.5 -0.1 96 -1 -1 1024.0 1016.6
09 15.10 штиль 0 18 км слабый ливневой снег 10/10 600 м
[Cb cap]
+0.7 +0.4 98 -1 -1 1024.3 1016.9
12 15.10 штиль 0 н/о слабый ливневой снег 10/10 600 м
[Cb cap]
+0.2 +0.2 100 -1 -1 1024.9 1017.5 +0.7 1
15 15.10 штиль 0 н/о слабый ливневой снег 10/10 600 м
[Cb cap]
+0.6 +0.6 100 -1 -1 1025.2 1017.8
18 15.10 штиль 0 н/о {ливн. осадки} 10/10 600 м
[Cb cap]
+0.9 +0.9 100 -1 -1 1025.6 1018.2
21 15.10 Ю 1 н/о 10/10 600 м
[Cb cap]
+0.4 +0.4 100 -2 -2 1025.9 1018.5
00 16.10 Ю 1 н/о 10/10 600 м
[Cb cap]
-0.2 -1.4 92 -2 -2 1025.9 1018.5 -0.4 0.6
03 16.10 Ю 1 20 км 9/9 600 м
[Cb cap]
-0.4 -1.9 90 -3 -2 1026.4 1019.0 -0.7
06 16.10 ЮВ 2 20 км 9/8 600 м
[Cb cap Ci fib]
+0.3 -1.7 86 -3 -3 1025.7 1018.3
09 16.10 З 1 50 км 8/8 600 м
[Cb cap]
+2.0 -1.7 76 +1 +1 1024.4 1017.0
12 16.10 штиль 0 н/о 6/6 600 м
[Sc]
+0.4 -1.0 90 -1 -1 1023.9 1016.5 +2.2
15 16.10 штиль 0 н/о ясно -2.6 -2.9 98 -4 -4 1022.5 1015.1
18 16.10 В 1 н/о туман ясно -1.9 -2.2 98 -4 -4 1020.3 1013.0
21 16.10 штиль 0 н/о {туман} 4/4 600 м
[Sc]
-3.7 -4.2 96 -5 -5 1018.6 1011.2
00 17.10 штиль 0 н/о {туман} 4/3 600 м
[Sc Ci fib]
-5.4 -6.1 95 -6 -6 1017.1 1009.7 -5.7
03 17.10 штиль 0 20 км 8/8 600 м
[Sc]
-5.2 -5.5 98 -6 -6 1015.8 1008.4
06 17.10 ЮВ 1 18 км слабый снег 10/3 600 м
[Sc Cs]
-1.2 -1.6 97 -4 -2 1014.3 1007.0
09 17.10 Ю 2 50 км {снег} 6/3 600 м
[Cb cap Ci fib]
+0.7 -1.0 88 -3 -3 1014.4 1007.1
12 17.10 Ю 1 н/о {снег} 10/10 600 м
[Cb cap]
-0.2 -2.9 82 -2 -2 1015.7 1008.4 +0.8 0.0
15 17.10 Ю 2 н/о 8/8 600 м
[Cb cap]
-1.0 -4.2 79 -5 -5 1016.2 1008.9
18 17.10 Ю 3 н/о 4/4 600 м
[Sc]
-1.3 -4.3 80 -6 -6 1016.4 1009.1
21 17.10 Ю 1 н/о 10/10 600 м
[Cb cap]
-0.8 -3.6 81 -3 -3 1015.8 1008.5
00 18.10 Ю 1 н/о 9/9 600 м
[Cb cap]
0.0 -2.4 84 -2 -2 1015.3 1008.0 -1.6
03 18.10 ЮВ 2 20 км 9/8 600 м
[Cb cap Cs]
+0.5 -2.1 83 -3 -3 1014.3 1007.0
06 18.10 Ю 1 18 км слабый ливневой снег 10/10 600 м
[Cb cap]
+0.6 -1.7 85 -1 -1 1014.7 1007.4
09 18.10 Ю 2 18 км слабый ливневой снег 8/8 600 м
[Cb cap]
+0.8 -0.9 88 -3 -3 1014.8 1007.5
12 18.10 Ю 2 н/о слабый ливневой снег 10/10 600 м
[Cb cap]
-0.3 -2.1 88 -4 -4 1015.6 1008.3 +1.3 0.0
15 18.10 Ю 2 н/о слабый ливневой снег 10/10 600 м
[Cb cap]
+0.6 -1.1 88 -3 -3 1016.1 1008.8
18 18.10 В 1 н/о слабый ливневой снег 10/10 600 м
[Cb cap]
0.0 -0.6 96 -2 -2 1015.2 1007.9
21 18.10 ЮВ 1 н/о слабый ливневой снег 10/10 600 м
[Cb cap]
+1.0 -1.6 83 -1 -1 1015.0 1007.7
00 19.10 Ю 1 н/о слабый ливневой снег 10/10 600 м
[Cb cap]
+1.0 -2.2 79 -1 -1 1015.2 1007.9 -0.4 0.7 <0.5
03 19.10 Ю 1 20 км {ливн. осадки} 10/0
[As op]
+1.2 -2.6 76 -0 -0 1015.3 1008.0
06 19.10 Ю 2 20 км {ливн. осадки} 10/0
[As trans]
+2.7 -2.8 67 -0 +1 1015.2 1008.0
09 19.10 Ю 2 20 км 10/0
[As op]
+2.6 -2.6 69 -0 -0 1015.4 1008.2
12 19.10 ЮВ 1 н/о {дождь} 10/0
[As trans]
+1.0 -0.4 90 -1 -1 1016.4 1009.1 +2.8 0.0
15 19.10 Ю 1 н/о 10/6 600 м
[Cb cap As op]
+1.5 -1.6 80 -0 -0 1016.5 1009.2
18 19.10 Ю 2 н/о 10/3 600 м
[Cb cap As op]
+1.2 -1.1 85 -2 -2 1016.4 1009.1
21 19.10 Ю 1 н/о 10/0
[As op]
+1.2 -0.5 88 -1 -1 1016.3 1009.0
00 20.10 Ю 2 н/о 10/0
[As op]
+1.5 -0.4 87 -2 -2 1016.5 1009.2 +0.3
03 20.10 штиль 0 20 км {ливн. осадки} 10/10 600 м
[Cb cap]
+1.9 +0.3 89 +1 +1 1017.3 1010.1
06 20.10 ЮВ 1 20 км {ливн. осадки} 10/10 600 м
[Cb cap]
+2.7 +0.6 86 +1 +1 1017.7 1010.5
09 20.10 ЮВ 2 20 км 9/6 600 м
[Cb cap As trans]
+4.4 +0.5 76 +2 +2 1017.7 1010.5
12 20.10 ЮВ 2 н/о 4/4 600 м
[Sc]
+2.4 0.0 84 -1 -1 1018.0 1010.8 +4.5 0.0
15 20.10 штиль 0 н/о 8/8 600 м
[Sc]
-0.4 -1.6 92 -2 -2 1018.3 1011.0
18 20.10 ЮВ 1 н/о 8/8 600 м
[Sc]
+1.2 -0.5 88 -1 -1 1017.7 1010.4
21 20.10 В 1 н/о 6/6 600 м
[Sc]
+0.9 -0.8 88 -1 -1 1017.2 1009.9
00 21.10 ЮВ 2 н/о 9/9 600 м
[Sc]
+1.6 +0.2 90 -2 -2 1016.5 1009.2 -0.6
03 21.10 Ю 3 20 км 8/8 600 м
[Cb cap]
+2.4 0.0 84 -2 -2 1015.7 1008.5
06 21.10 ЮВ 2 18 км слабый ливневой дождь 10/10 600 м
[Cb cap]
+2.5 +0.6 87 -1 -1 1014.7 1007.5
09 21.10 Ю 3 20 км {ливн. осадки} 10/10 600 м
[Cb cap]
+3.9 -0.7 72 0 0 1012.9 1005.7

 

Местоположение метеостанции Бор (Красноярский край, Россия): широта 61.60 долгота 90.02 высота над уровнем моря 58 м.

В архиве по умолчанию представлена погода в Боре за последнюю неделю. Архивные данные за месяц целиком и за предыдущие месяцы, начиная с января 2011 года, Вы можете получить, выбрав интересующий диапазон дат из раскрывающегося списка и нажав кнопку "Ввод!".


*Определитесь, кто Вы:
робот инопланетянин человек

Внимание! Время в таблицах - всемирное. Для получения местного времени необходимо прибавить поправку, которая в Боре равна 7 ч.

Смотрите также архив погоды в соседних городах и на ближайших метеорологических станциях:

Погода в Ворогове (Красноярский край, Россия) (67 км)
Погода в Бахте (Красноярский край, Россия) (110 км)
Погода в Кузьмовке (Эвенкия, Россия) (136 км)
Погода в Ярцеве (Красноярский край, Россия) (147 км)
Погода в Сыме (Красноярский край, Россия) (165 км)
Погода в Вельмо (Красноярский край, Россия) (193 км)
Погода в Верхнеимбатске (Красноярский край, Россия) (203 км)
Погода в Северо-Енисейском (Красноярский край, Россия) (212 км)
Погода в Келлоге (Красноярский край, Россия) (218 км)
Погода в Назимово (Красноярский край, Россия) (240 км)

Пояснения к столбцам:

Ветер - указаны скорость ветра в м/с - средняя за 10 мин, порывы в срок и между сроками (в фигурных скобках) и направление, откуда дует ветер: С - северный, СВ - северо-восточный, В - восточный, ЮВ - юго-восточный, Ю - южный, ЮЗ - юго-западный, З - западный, СЗ - северо-западный.
Видимость - горизонтальная дальность видимости в метрах или километрах. При видимости от 1 до 10 км при отсутствии осадков обычно наблюдается дымка, при ухудшении видимости до 1 км и менее - туман. В сухую погоду видимость может ухудшаться дымом, пылью или мглою.
Явления - указаны атмосферные явления, наблюдавшиеся в срок или в последний час перед сроком; фигурными скобками обозначены явления, наблюдавшиеся между сроками (за 1-3 часа до срока); квадратными скобками обозначены град или гололедные отложения с указанием их диаметра в мм.
Облачность - указаны через наклонную черту общая и нижняя облачность в баллах и высота нижней границы облаков в метрах; квадратными скобками обозначены формы облаков: Ci - перистые, Cs - перисто-слоистые, Cc - перисто-кучевые, Ac - высококучевые, As - высокослоистые, Sc - слоисто-кучевые, Ns - слоисто-дождевые, Cu - кучевые, Cb - кучево-дождевые. Подробнее классификацию облаков см. в Атласе облаков (PDF).
T - Температура воздуха - температура, измеренная на высоте 2 м над землей.
Td - Температура точки росы - температура, при понижении до которой содержащийся в воздухе водяной пар достигнет насыщения.
f - Относительная влажность воздуха - влажноcть воздуха, измеренная на высоте 2 м над землей.
Te - Эффективная температура - температура, которую ощущает одетый по сезону человек в тени. Характеристика душности погоды. При расчете учитывается влияние влажности воздуха и скорости ветра на теплоощущения человека.
Tes - Эффективная температура на солнце - температура, которую ощущает человек, с поправкой на солнечный нагрев. Характеристика знойности погоды. Зависит от высоты солнца над горизонтом, облачности и скорости ветра. Ночью, в пасмурную погоду, а также при ветре 12 м/с и более поправка равна нулю.
P - Атмосферное давление - приведенное к уровню моря атмосферное давление.
Po - Атмосферное давление - измеренное на уровне метеостанции атмосферное давление.
Tmin - Минимальная температура - минимум температуры воздуха на высоте 2 м над землей.
Tmax - Максимальная температура - максимум температуры воздуха на высоте 2 м над землей.
R - Количество осадков - Количество выпавших осадков за период времени, мм. При наведении курсора мыши на число - период времени, за который выпало указанное количество осадков.
R24 - Количество осадков - Количество выпавших осадков за 24 часа, мм.
S - Снежный покров - Высота снежного покрова, см. При наведении курсора мыши на число - состояние снежного покрова и степень покрытия местности в баллах.